Year,Month,Day,Hour,Minute,Value (Times are PST for windspeed in km/hr)
2008,10,04,00,00,5.70
2008,10,04,00,01,13.00
2008,10,04,00,02,12.50
2008,10,04,00,03,10.60
2008,10,04,00,04,11.30
2008,10,04,00,05,9.90
2008,10,04,00,06,8.50
2008,10,04,00,07,7.20
2008,10,04,00,08,5.00
2008,10,04,00,09,6.80
2008,10,04,00,10,10.90
2008,10,04,00,11,6.00
2008,10,04,00,12,9.50
2008,10,04,00,13,4.00
2008,10,04,00,14,6.90
2008,10,04,00,15,9.60
2008,10,04,00,16,12.50
2008,10,04,00,17,5.10
2008,10,04,00,18,4.70
2008,10,04,00,19,3.70
2008,10,04,00,20,8.00
2008,10,04,00,21,6.60
2008,10,04,00,22,8.20
2008,10,04,00,23,8.30
2008,10,04,00,24,7.80
2008,10,04,00,25,8.00
2008,10,04,00,26,11.10
2008,10,04,00,27,12.20
2008,10,04,00,28,7.10
2008,10,04,00,29,6.30
2008,10,04,00,30,8.00
2008,10,04,00,31,9.00
2008,10,04,00,32,9.30
2008,10,04,00,33,5.80
2008,10,04,00,34,11.50
2008,10,04,00,35,8.70
2008,10,04,00,36,8.90
2008,10,04,00,37,9.70
2008,10,04,00,38,5.10
2008,10,04,00,39,5.40
2008,10,04,00,40,6.50
2008,10,04,00,41,5.20
2008,10,04,00,42,3.00
2008,10,04,00,43,1.00
2008,10,04,00,44,3.00
2008,10,04,00,45,3.10
2008,10,04,00,46,5.70
2008,10,04,00,47,6.20
2008,10,04,00,48,8.30
2008,10,04,00,49,7.30
2008,10,04,00,50,5.20
2008,10,04,00,51,10.70
2008,10,04,00,52,5.70
2008,10,04,00,53,6.10
2008,10,04,00,54,11.20
2008,10,04,00,55,5.90
2008,10,04,00,56,4.90
2008,10,04,00,57,6.20
2008,10,04,00,58,6.10
2008,10,04,00,59,15.30
2008,10,04,01,00,9.00
2008,10,04,01,01,7.30
2008,10,04,01,02,6.80
2008,10,04,01,03,5.50
2008,10,04,01,04,4.10
2008,10,04,01,05,8.70
2008,10,04,01,06,9.00
2008,10,04,01,07,8.10
2008,10,04,01,08,4.30
2008,10,04,01,09,4.60
2008,10,04,01,10,6.40
2008,10,04,01,11,5.10
2008,10,04,01,12,5.30
2008,10,04,01,13,1.00
2008,10,04,01,14,6.20
2008,10,04,01,15,8.50
2008,10,04,01,16,7.70
2008,10,04,01,17,12.90
2008,10,04,01,18,8.40
2008,10,04,01,19,7.30
2008,10,04,01,20,11.70
2008,10,04,01,21,9.70
2008,10,04,01,22,8.90
2008,10,04,01,23,9.50
2008,10,04,01,24,6.70
2008,10,04,01,25,7.80
2008,10,04,01,26,5.60
2008,10,04,01,27,3.00
2008,10,04,01,28,6.50
2008,10,04,01,29,8.00
2008,10,04,01,30,6.10
2008,10,04,01,31,6.90
2008,10,04,01,32,5.00
2008,10,04,01,33,4.70
2008,10,04,01,34,4.30
2008,10,04,01,35,4.60
2008,10,04,01,36,3.50
2008,10,04,01,37,4.30
2008,10,04,01,38,3.20
2008,10,04,01,39,3.80
2008,10,04,01,40,0.80
2008,10,04,01,41,3.60
2008,10,04,01,42,8.00
2008,10,04,01,43,11.20
2008,10,04,01,44,5.70
2008,10,04,01,45,6.60
2008,10,04,01,46,2.80
2008,10,04,01,47,4.90
2008,10,04,01,48,10.70
2008,10,04,01,49,6.80
2008,10,04,01,50,6.60
2008,10,04,01,51,7.30
2008,10,04,01,52,2.10
2008,10,04,01,53,4.60
2008,10,04,01,54,6.10
2008,10,04,01,55,1.30
2008,10,04,01,56,3.50
2008,10,04,01,57,3.10
2008,10,04,01,58,4.70
2008,10,04,01,59,4.50
2008,10,04,02,00,4.70
2008,10,04,02,01,4.90
2008,10,04,02,02,9.00
2008,10,04,02,03,6.50
2008,10,04,02,04,5.50
2008,10,04,02,05,2.40
2008,10,04,02,06,7.60
2008,10,04,02,07,9.90
2008,10,04,02,08,7.90
2008,10,04,02,09,11.70
2008,10,04,02,10,13.00
2008,10,04,02,11,10.00
2008,10,04,02,12,9.40
2008,10,04,02,13,12.40
2008,10,04,02,14,8.50
2008,10,04,02,15,11.00
2008,10,04,02,16,10.60
2008,10,04,02,17,8.60
2008,10,04,02,18,9.20
2008,10,04,02,19,12.90
2008,10,04,02,20,8.00
2008,10,04,02,21,8.90
2008,10,04,02,22,9.50
2008,10,04,02,23,11.10
2008,10,04,02,24,9.90
2008,10,04,02,25,12.60
2008,10,04,02,26,5.00
2008,10,04,02,27,6.40
2008,10,04,02,28,11.40
2008,10,04,02,29,8.00
2008,10,04,02,30,15.00
2008,10,04,02,31,13.80
2008,10,04,02,32,9.10
2008,10,04,02,33,9.00
2008,10,04,02,34,7.40
2008,10,04,02,35,5.80
2008,10,04,02,36,7.20
2008,10,04,02,37,9.70
2008,10,04,02,38,9.00
2008,10,04,02,39,14.80
2008,10,04,02,40,17.50
2008,10,04,02,41,18.40
2008,10,04,02,42,17.30
2008,10,04,02,43,11.10
2008,10,04,02,44,10.60
2008,10,04,02,45,10.80
2008,10,04,02,46,10.80
2008,10,04,02,47,15.40
2008,10,04,02,48,15.60
2008,10,04,02,49,8.10
2008,10,04,02,50,11.70
2008,10,04,02,51,8.40
2008,10,04,02,52,7.30
2008,10,04,02,53,10.40
2008,10,04,02,54,7.50
2008,10,04,02,55,3.90
2008,10,04,02,56,7.80
2008,10,04,02,57,3.80
2008,10,04,02,58,4.90
2008,10,04,02,59,8.10
2008,10,04,03,00,9.80
2008,10,04,03,01,11.20
2008,10,04,03,02,6.70
2008,10,04,03,03,5.80
2008,10,04,03,04,6.90
2008,10,04,03,05,4.80
2008,10,04,03,06,3.50
2008,10,04,03,07,3.90
2008,10,04,03,08,5.20
2008,10,04,03,09,6.70
2008,10,04,03,10,5.10
2008,10,04,03,11,8.00
2008,10,04,03,12,3.30
2008,10,04,03,13,3.90
2008,10,04,03,14,0.20
2008,10,04,03,15,0.00
2008,10,04,03,16,2.20
2008,10,04,03,17,4.40
2008,10,04,03,18,5.40
2008,10,04,03,19,1.60
2008,10,04,03,20,3.20
2008,10,04,03,21,2.70
2008,10,04,03,22,1.50
2008,10,04,03,23,4.60
2008,10,04,03,24,4.70
2008,10,04,03,25,5.70
2008,10,04,03,26,6.50
2008,10,04,03,27,5.70
2008,10,04,03,28,2.20
2008,10,04,03,29,3.00
2008,10,04,03,30,4.20
2008,10,04,03,31,3.80
2008,10,04,03,32,5.50
2008,10,04,03,33,5.60
2008,10,04,03,34,3.50
2008,10,04,03,35,3.20
2008,10,04,03,36,3.90
2008,10,04,03,37,5.50
2008,10,04,03,38,0.80
2008,10,04,03,39,1.30
2008,10,04,03,40,5.90
2008,10,04,03,41,2.10
2008,10,04,03,42,0.00
2008,10,04,03,43,0.40
2008,10,04,03,44,3.00
2008,10,04,03,45,6.00
2008,10,04,03,46,5.50
2008,10,04,03,47,7.40
2008,10,04,03,48,5.70
2008,10,04,03,49,6.90
2008,10,04,03,50,13.00
2008,10,04,03,51,8.80
2008,10,04,03,52,7.50
2008,10,04,03,53,8.20
2008,10,04,03,54,7.40
2008,10,04,03,55,5.90
2008,10,04,03,56,6.10
2008,10,04,03,57,9.60
2008,10,04,03,58,11.90
2008,10,04,03,59,16.10
2008,10,04,04,00,19.90
2008,10,04,04,01,14.40
2008,10,04,04,02,7.20
2008,10,04,04,03,13.40
2008,10,04,04,04,5.70
2008,10,04,04,05,3.40
2008,10,04,04,06,2.20
2008,10,04,04,07,3.80
2008,10,04,04,08,5.20
2008,10,04,04,09,5.40
2008,10,04,04,10,5.00
2008,10,04,04,11,5.30
2008,10,04,04,12,4.50
2008,10,04,04,13,6.30
2008,10,04,04,14,13.10
2008,10,04,04,15,10.90
2008,10,04,04,16,13.30
2008,10,04,04,17,11.30
2008,10,04,04,18,12.90
2008,10,04,04,19,8.30
2008,10,04,04,20,11.90
2008,10,04,04,21,4.00
2008,10,04,04,22,16.50
2008,10,04,04,23,21.80
2008,10,04,04,24,18.10
2008,10,04,04,25,16.60
2008,10,04,04,26,17.20
2008,10,04,04,27,11.50
2008,10,04,04,28,7.80
2008,10,04,04,29,4.30
2008,10,04,04,30,1.80
2008,10,04,04,31,2.10
2008,10,04,04,32,3.60
2008,10,04,04,33,1.60
2008,10,04,04,34,2.40
2008,10,04,04,35,3.10
2008,10,04,04,36,3.30
2008,10,04,04,37,3.90
2008,10,04,04,38,2.90
2008,10,04,04,39,5.20
2008,10,04,04,40,6.70
2008,10,04,04,41,10.50
2008,10,04,04,42,9.30
2008,10,04,04,43,10.20
2008,10,04,04,44,13.50
2008,10,04,04,45,8.00
2008,10,04,04,46,11.00
2008,10,04,04,47,12.00
2008,10,04,04,48,9.10
2008,10,04,04,49,13.60
2008,10,04,04,50,16.60
2008,10,04,04,51,17.90
2008,10,04,04,52,10.70
2008,10,04,04,53,5.30
2008,10,04,04,54,3.70
2008,10,04,04,55,7.90
2008,10,04,04,56,8.30
2008,10,04,04,57,1.80
2008,10,04,04,58,5.60
2008,10,04,04,59,5.90
2008,10,04,05,00,6.40
2008,10,04,05,01,3.90
2008,10,04,05,02,7.70
2008,10,04,05,03,7.10
2008,10,04,05,04,2.70
2008,10,04,05,05,3.80
2008,10,04,05,06,4.30
2008,10,04,05,07,6.40
2008,10,04,05,08,4.00
2008,10,04,05,09,5.30
2008,10,04,05,10,9.90
2008,10,04,05,11,7.70
2008,10,04,05,12,6.40
2008,10,04,05,13,4.70
2008,10,04,05,14,10.20
2008,10,04,05,15,4.90
2008,10,04,05,16,5.20
2008,10,04,05,17,9.50
2008,10,04,05,18,7.20
2008,10,04,05,19,13.00
2008,10,04,05,20,8.30
2008,10,04,05,21,9.50
2008,10,04,05,22,4.60
2008,10,04,05,23,9.50
2008,10,04,05,24,5.40
2008,10,04,05,25,7.20
2008,10,04,05,26,12.90
2008,10,04,05,27,12.90
2008,10,04,05,28,14.20
2008,10,04,05,29,10.90
2008,10,04,05,30,12.90
2008,10,04,05,31,15.00
2008,10,04,05,32,10.60
2008,10,04,05,33,13.20
2008,10,04,05,34,12.10
2008,10,04,05,35,11.80
2008,10,04,05,36,9.50
2008,10,04,05,37,11.80
2008,10,04,05,38,14.30
2008,10,04,05,39,10.80
2008,10,04,05,40,9.70
2008,10,04,05,41,10.40
2008,10,04,05,42,13.90
2008,10,04,05,43,14.00
2008,10,04,05,44,10.20
2008,10,04,05,45,15.20
2008,10,04,05,46,17.20
2008,10,04,05,47,12.10
2008,10,04,05,48,17.10
2008,10,04,05,49,16.90
2008,10,04,05,50,13.70
2008,10,04,05,51,14.10
2008,10,04,05,52,10.80
2008,10,04,05,53,18.50
2008,10,04,05,54,17.70
2008,10,04,05,55,9.80
2008,10,04,05,56,13.80
2008,10,04,05,57,16.20
2008,10,04,05,58,13.30
2008,10,04,05,59,12.00
2008,10,04,06,00,10.10
2008,10,04,06,01,11.90
2008,10,04,06,02,11.40
2008,10,04,06,03,14.00
2008,10,04,06,04,10.70
2008,10,04,06,05,10.90
2008,10,04,06,06,17.20
2008,10,04,06,07,10.80
2008,10,04,06,08,13.20
2008,10,04,06,09,17.90
2008,10,04,06,10,9.60
2008,10,04,06,11,11.30
2008,10,04,06,12,9.30
2008,10,04,06,13,8.00
2008,10,04,06,14,8.20
2008,10,04,06,15,7.70
2008,10,04,06,16,8.00
2008,10,04,06,17,8.20
2008,10,04,06,18,9.60
2008,10,04,06,19,9.70
2008,10,04,06,20,12.30
2008,10,04,06,21,7.10
2008,10,04,06,22,10.10
2008,10,04,06,23,5.60
2008,10,04,06,24,4.40
2008,10,04,06,25,3.00
2008,10,04,06,26,2.40
2008,10,04,06,27,4.40
2008,10,04,06,28,7.40
2008,10,04,06,29,7.10
2008,10,04,06,30,7.20
2008,10,04,06,31,6.80
2008,10,04,06,32,6.30
2008,10,04,06,33,5.90
2008,10,04,06,34,2.80
2008,10,04,06,35,2.90
2008,10,04,06,36,3.40
2008,10,04,06,37,4.70
2008,10,04,06,38,4.70
2008,10,04,06,39,4.00
2008,10,04,06,40,5.10
2008,10,04,06,41,5.00
2008,10,04,06,42,3.00
2008,10,04,06,43,7.70
2008,10,04,06,44,6.80
2008,10,04,06,45,6.70
2008,10,04,06,46,6.60
2008,10,04,06,47,5.20
2008,10,04,06,48,5.90
2008,10,04,06,49,6.50
2008,10,04,06,50,3.60
2008,10,04,06,51,4.30
2008,10,04,06,52,7.30
2008,10,04,06,53,5.60
2008,10,04,06,54,7.50
2008,10,04,06,55,7.00
2008,10,04,06,56,11.40
2008,10,04,06,57,9.40
2008,10,04,06,58,10.60
2008,10,04,06,59,7.30
2008,10,04,07,00,4.30
2008,10,04,07,01,3.40
2008,10,04,07,02,5.10
2008,10,04,07,03,3.10
2008,10,04,07,04,2.90
2008,10,04,07,05,1.50
2008,10,04,07,06,1.40
2008,10,04,07,07,3.50
2008,10,04,07,08,1.60
2008,10,04,07,09,1.90
2008,10,04,07,10,1.70
2008,10,04,07,11,1.20
2008,10,04,07,12,0.40
2008,10,04,07,13,0.40
2008,10,04,07,14,0.00
2008,10,04,07,15,2.50
2008,10,04,07,16,5.80
2008,10,04,07,17,6.40
2008,10,04,07,18,7.40
2008,10,04,07,19,6.50
2008,10,04,07,20,4.10
2008,10,04,07,21,7.20
2008,10,04,07,22,7.30
2008,10,04,07,23,5.80
2008,10,04,07,24,6.40
2008,10,04,07,25,6.20
2008,10,04,07,26,5.00
2008,10,04,07,27,4.70
2008,10,04,07,28,3.10
2008,10,04,07,29,2.70
2008,10,04,07,30,6.20
2008,10,04,07,31,8.90
2008,10,04,07,32,6.10
2008,10,04,07,33,3.10
2008,10,04,07,34,5.50
2008,10,04,07,35,8.40
2008,10,04,07,36,7.20
2008,10,04,07,37,5.00
2008,10,04,07,38,5.80
2008,10,04,07,39,7.70
2008,10,04,07,40,12.40
2008,10,04,07,41,10.10
2008,10,04,07,42,6.70
2008,10,04,07,43,8.90
2008,10,04,07,44,9.50
2008,10,04,07,45,9.70
2008,10,04,07,46,9.70
2008,10,04,07,47,8.50
2008,10,04,07,48,7.10
2008,10,04,07,49,6.00
2008,10,04,07,50,8.60
2008,10,04,07,51,5.60
2008,10,04,07,52,6.90
2008,10,04,07,53,7.90
2008,10,04,07,54,5.20
2008,10,04,07,55,3.40
2008,10,04,07,56,5.10
2008,10,04,07,57,3.00
2008,10,04,07,58,2.80
2008,10,04,07,59,2.90
2008,10,04,08,00,2.70
2008,10,04,08,01,2.70
2008,10,04,08,02,4.30
2008,10,04,08,03,2.90
2008,10,04,08,04,3.10
2008,10,04,08,05,0.90
2008,10,04,08,06,0.80
2008,10,04,08,07,0.70
2008,10,04,08,08,0.40
2008,10,04,08,09,5.00
2008,10,04,08,10,4.20
2008,10,04,08,11,0.20
2008,10,04,08,12,2.00
2008,10,04,08,13,2.20
2008,10,04,08,14,1.50
2008,10,04,08,15,2.30
2008,10,04,08,16,3.40
2008,10,04,08,17,3.10
2008,10,04,08,18,0.70
2008,10,04,08,19,0.20
2008,10,04,08,20,1.50
2008,10,04,08,21,4.80
2008,10,04,08,22,4.20
2008,10,04,08,23,0.90
2008,10,04,08,24,0.00
2008,10,04,08,25,0.20
2008,10,04,08,26,0.00
2008,10,04,08,27,0.80
2008,10,04,08,28,5.10
2008,10,04,08,29,6.40
2008,10,04,08,30,6.90
2008,10,04,08,31,8.10
2008,10,04,08,32,5.40
2008,10,04,08,33,2.90
2008,10,04,08,34,4.60
2008,10,04,08,35,5.70
2008,10,04,08,36,3.60
2008,10,04,08,37,5.00
2008,10,04,08,38,2.80
2008,10,04,08,39,0.80
2008,10,04,08,40,2.80
2008,10,04,08,41,0.00
2008,10,04,08,42,0.00
2008,10,04,08,43,1.90
2008,10,04,08,44,2.10
2008,10,04,08,45,2.20
2008,10,04,08,46,4.40
2008,10,04,08,47,4.60
2008,10,04,08,48,4.10
2008,10,04,08,49,5.10
2008,10,04,08,50,4.10
2008,10,04,08,51,5.30
2008,10,04,08,52,5.40
2008,10,04,08,53,4.00
2008,10,04,08,54,3.70
2008,10,04,08,55,0.90
2008,10,04,08,56,4.50
2008,10,04,08,57,3.80
2008,10,04,08,58,6.10
2008,10,04,08,59,4.70
2008,10,04,09,00,4.30
2008,10,04,09,01,5.00
2008,10,04,09,02,3.40
2008,10,04,09,03,3.10
2008,10,04,09,04,4.10
2008,10,04,09,05,3.00
2008,10,04,09,06,5.70
2008,10,04,09,07,8.10
2008,10,04,09,08,2.90
2008,10,04,09,09,1.90
2008,10,04,09,10,0.10
2008,10,04,09,11,2.30
2008,10,04,09,12,2.20
2008,10,04,09,13,3.80
2008,10,04,09,14,3.30
2008,10,04,09,15,2.40
2008,10,04,09,16,0.10
2008,10,04,09,17,0.00
2008,10,04,09,18,1.80
2008,10,04,09,19,1.60
2008,10,04,09,20,0.60
2008,10,04,09,21,0.00
2008,10,04,09,22,0.00
2008,10,04,09,23,0.00
2008,10,04,09,24,0.00
2008,10,04,09,25,0.00
2008,10,04,09,26,0.00
2008,10,04,09,27,2.00
2008,10,04,09,28,1.60
2008,10,04,09,29,3.20
2008,10,04,09,30,2.50
2008,10,04,09,31,0.00
2008,10,04,09,32,1.50
2008,10,04,09,33,3.10
2008,10,04,09,34,1.40
2008,10,04,09,35,2.60
2008,10,04,09,36,1.90
2008,10,04,09,37,3.30
2008,10,04,09,38,2.60
2008,10,04,09,39,0.60
2008,10,04,09,40,3.90
2008,10,04,09,41,4.20
2008,10,04,09,42,3.00
2008,10,04,09,43,0.20
2008,10,04,09,44,0.60
2008,10,04,09,45,4.00
2008,10,04,09,46,5.40
2008,10,04,09,47,5.10
2008,10,04,09,48,5.70
2008,10,04,09,49,1.50
2008,10,04,09,50,4.90
2008,10,04,09,51,1.00
2008,10,04,09,52,1.50
2008,10,04,09,53,1.40
2008,10,04,09,54,7.50
2008,10,04,09,55,6.20
2008,10,04,09,56,3.30
2008,10,04,09,57,6.30
2008,10,04,09,58,6.00
2008,10,04,09,59,4.70
2008,10,04,10,00,4.50
2008,10,04,10,01,5.40
2008,10,04,10,02,8.40
2008,10,04,10,03,7.70
2008,10,04,10,04,5.70
2008,10,04,10,05,5.80
2008,10,04,10,06,4.80
2008,10,04,10,07,0.90
2008,10,04,10,08,3.40
2008,10,04,10,09,6.60
2008,10,04,10,10,9.00
2008,10,04,10,11,7.70
2008,10,04,10,12,6.30
2008,10,04,10,13,1.60
2008,10,04,10,14,4.70
2008,10,04,10,15,4.50
2008,10,04,10,16,7.40
2008,10,04,10,17,6.70
2008,10,04,10,18,9.30
2008,10,04,10,19,5.90
2008,10,04,10,20,9.90
2008,10,04,10,21,7.70
2008,10,04,10,22,6.80
2008,10,04,10,23,10.20
2008,10,04,10,24,8.60
2008,10,04,10,25,5.60
2008,10,04,10,26,6.60
2008,10,04,10,27,9.50
2008,10,04,10,28,15.50
2008,10,04,10,29,14.00
2008,10,04,10,30,9.30
2008,10,04,10,31,14.20
2008,10,04,10,32,8.50
2008,10,04,10,33,10.40
2008,10,04,10,34,10.50
2008,10,04,10,35,12.00
2008,10,04,10,36,11.10
2008,10,04,10,37,6.80
2008,10,04,10,38,9.00
2008,10,04,10,39,7.60
2008,10,04,10,40,8.60
2008,10,04,10,41,5.70
2008,10,04,10,42,14.30
2008,10,04,10,43,7.90
2008,10,04,10,44,8.40
2008,10,04,10,45,4.40
2008,10,04,10,46,8.70
2008,10,04,10,47,12.20
2008,10,04,10,48,12.80
2008,10,04,10,49,6.70
2008,10,04,10,50,10.30
2008,10,04,10,51,11.50
2008,10,04,10,52,13.60
2008,10,04,10,53,14.40
2008,10,04,10,54,12.20
2008,10,04,10,55,6.90
2008,10,04,10,56,9.30
2008,10,04,10,57,6.20
2008,10,04,10,58,3.30
2008,10,04,10,59,7.50
2008,10,04,11,00,4.30
2008,10,04,11,01,4.50
2008,10,04,11,02,3.70
2008,10,04,11,03,0.20
2008,10,04,11,04,3.30
2008,10,04,11,05,4.10
2008,10,04,11,06,3.70
2008,10,04,11,07,4.00
2008,10,04,11,08,6.10
2008,10,04,11,09,5.80
2008,10,04,11,10,6.20
2008,10,04,11,11,4.70
2008,10,04,11,12,4.20
2008,10,04,11,13,5.70
2008,10,04,11,14,4.40
2008,10,04,11,15,4.90
2008,10,04,11,16,4.40
2008,10,04,11,17,4.90
2008,10,04,11,18,2.90
2008,10,04,11,19,4.30
2008,10,04,11,20,4.80
2008,10,04,11,21,2.80
2008,10,04,11,22,1.20
2008,10,04,11,23,1.70
2008,10,04,11,24,3.10
2008,10,04,11,25,4.60
2008,10,04,11,26,4.50
2008,10,04,11,27,2.00
2008,10,04,11,28,0.10
2008,10,04,11,29,0.00
2008,10,04,11,30,3.20
2008,10,04,11,31,2.30
2008,10,04,11,32,1.30
2008,10,04,11,33,2.00
2008,10,04,11,34,3.90
2008,10,04,11,35,0.80
2008,10,04,11,36,2.60
2008,10,04,11,37,2.60
2008,10,04,11,38,2.60
2008,10,04,11,39,4.90
2008,10,04,11,40,3.50
2008,10,04,11,41,2.80
2008,10,04,11,42,1.50
2008,10,04,11,43,4.00
2008,10,04,11,44,1.90
2008,10,04,11,45,0.30
2008,10,04,11,46,2.40
2008,10,04,11,47,3.60
2008,10,04,11,48,4.60
2008,10,04,11,49,4.80
2008,10,04,11,50,2.80
2008,10,04,11,51,7.20
2008,10,04,11,52,7.30
2008,10,04,11,53,7.30
2008,10,04,11,54,4.10
2008,10,04,11,55,4.10
2008,10,04,11,56,6.50
2008,10,04,11,57,7.50
2008,10,04,11,58,5.80
2008,10,04,11,59,6.60
2008,10,04,12,00,10.60
2008,10,04,12,01,7.40
2008,10,04,12,02,7.90
2008,10,04,12,03,6.40
2008,10,04,12,04,9.60
2008,10,04,12,05,6.50
2008,10,04,12,06,8.40
2008,10,04,12,07,7.30
2008,10,04,12,08,3.60
2008,10,04,12,09,5.00
2008,10,04,12,10,6.10
2008,10,04,12,11,5.90
2008,10,04,12,12,5.20
2008,10,04,12,13,3.60
2008,10,04,12,14,3.80
2008,10,04,12,15,8.20
2008,10,04,12,16,8.80
2008,10,04,12,17,7.40
2008,10,04,12,18,5.00
2008,10,04,12,19,0.40
2008,10,04,12,20,6.50
2008,10,04,12,21,5.00
2008,10,04,12,22,6.20
2008,10,04,12,23,6.40
2008,10,04,12,24,3.80
2008,10,04,12,25,2.70
2008,10,04,12,26,5.50
2008,10,04,12,27,6.40
2008,10,04,12,28,7.20
2008,10,04,12,29,1.60
2008,10,04,12,30,6.20
2008,10,04,12,31,6.10
2008,10,04,12,32,6.80
2008,10,04,12,33,8.40
2008,10,04,12,34,5.00
2008,10,04,12,35,7.40
2008,10,04,12,36,8.60
2008,10,04,12,37,5.00
2008,10,04,12,38,7.90
2008,10,04,12,39,7.60
2008,10,04,12,40,4.80
2008,10,04,12,41,3.60
2008,10,04,12,42,4.80
2008,10,04,12,43,6.50
2008,10,04,12,44,3.80
2008,10,04,12,45,4.40
2008,10,04,12,46,4.70
2008,10,04,12,47,4.30
2008,10,04,12,48,2.70
2008,10,04,12,49,4.60
2008,10,04,12,50,4.80
2008,10,04,12,51,4.50
2008,10,04,12,52,3.40
2008,10,04,12,53,4.30
2008,10,04,12,54,3.90
2008,10,04,12,55,3.00
2008,10,04,12,56,4.80
2008,10,04,12,57,4.40
2008,10,04,12,58,3.20
2008,10,04,12,59,3.00
2008,10,04,13,00,0.40
2008,10,04,13,01,1.10
2008,10,04,13,02,0.10
2008,10,04,13,03,0.20
2008,10,04,13,04,0.00
2008,10,04,13,05,0.00
2008,10,04,13,06,0.00
2008,10,04,13,07,0.00
2008,10,04,13,08,0.00
2008,10,04,13,09,0.00
2008,10,04,13,10,0.00
2008,10,04,13,11,0.10
2008,10,04,13,12,1.30
2008,10,04,13,13,0.90
2008,10,04,13,14,2.40
2008,10,04,13,15,1.80
2008,10,04,13,16,2.60
2008,10,04,13,17,0.40
2008,10,04,13,18,1.70
2008,10,04,13,19,0.50
2008,10,04,13,20,0.00
2008,10,04,13,21,0.10
2008,10,04,13,22,0.00
2008,10,04,13,23,0.00
2008,10,04,13,24,0.20
2008,10,04,13,25,0.00
2008,10,04,13,26,1.00
2008,10,04,13,27,0.80
2008,10,04,13,28,4.60
2008,10,04,13,29,3.60
2008,10,04,13,30,2.40
2008,10,04,13,31,0.10
2008,10,04,13,32,2.30
2008,10,04,13,33,1.50
2008,10,04,13,34,4.00
2008,10,04,13,35,1.70
2008,10,04,13,36,0.10
2008,10,04,13,37,0.00
2008,10,04,13,38,0.10
2008,10,04,13,39,0.10
2008,10,04,13,40,0.00
2008,10,04,13,41,0.00
2008,10,04,13,42,0.40
2008,10,04,13,43,1.90
2008,10,04,13,44,0.10
2008,10,04,13,45,0.50
2008,10,04,13,46,1.80
2008,10,04,13,47,1.50
2008,10,04,13,48,3.90
2008,10,04,13,49,1.80
2008,10,04,13,50,0.40
2008,10,04,13,51,0.00
2008,10,04,13,52,0.00
2008,10,04,13,53,0.00
2008,10,04,13,54,0.00
2008,10,04,13,55,0.00
2008,10,04,13,56,0.00
2008,10,04,13,57,1.30
2008,10,04,13,58,0.00
2008,10,04,13,59,0.00
2008,10,04,14,00,0.00
2008,10,04,14,01,0.00
2008,10,04,14,02,0.00
2008,10,04,14,03,0.00
2008,10,04,14,04,0.00
2008,10,04,14,05,0.00
2008,10,04,14,06,0.00
2008,10,04,14,07,1.70
2008,10,04,14,08,2.40
2008,10,04,14,09,2.20
2008,10,04,14,10,3.50
2008,10,04,14,11,0.40
2008,10,04,14,12,0.00
2008,10,04,14,13,0.20
2008,10,04,14,14,0.10
2008,10,04,14,15,0.80
2008,10,04,14,16,0.00
2008,10,04,14,17,0.00
2008,10,04,14,18,0.00
2008,10,04,14,19,2.10
2008,10,04,14,20,4.20
2008,10,04,14,21,4.70
2008,10,04,14,22,6.00
2008,10,04,14,23,5.90
2008,10,04,14,24,6.50
2008,10,04,14,25,8.20
2008,10,04,14,26,8.00
2008,10,04,14,27,6.60
2008,10,04,14,28,7.90
2008,10,04,14,29,10.40
2008,10,04,14,30,9.40
2008,10,04,14,31,9.30
2008,10,04,14,32,10.40
2008,10,04,14,33,12.00
2008,10,04,14,34,9.20
2008,10,04,14,35,11.60
2008,10,04,14,36,13.20
2008,10,04,14,37,11.70
2008,10,04,14,38,11.50
2008,10,04,14,39,15.30
2008,10,04,14,40,21.90
2008,10,04,14,41,24.80
2008,10,04,14,42,19.80
2008,10,04,14,43,23.60
2008,10,04,14,44,24.90
2008,10,04,14,45,26.00
2008,10,04,14,46,27.20
2008,10,04,14,47,25.80
2008,10,04,14,48,25.00
2008,10,04,14,49,24.00
2008,10,04,14,50,26.40
2008,10,04,14,51,36.70
2008,10,04,14,52,36.30
2008,10,04,14,53,27.90
2008,10,04,14,54,38.50
2008,10,04,14,55,33.40
2008,10,04,14,56,33.20
2008,10,04,14,57,42.90
2008,10,04,14,58,31.50
2008,10,04,14,59,34.10
2008,10,04,15,00,29.70
2008,10,04,15,01,39.60
2008,10,04,15,02,42.00
2008,10,04,15,03,38.00
2008,10,04,15,04,38.00
2008,10,04,15,05,38.40
2008,10,04,15,06,29.40
2008,10,04,15,07,34.30
2008,10,04,15,08,36.70
2008,10,04,15,09,33.30
2008,10,04,15,10,39.30
2008,10,04,15,11,38.00
2008,10,04,15,12,35.00
2008,10,04,15,13,30.30
2008,10,04,15,14,25.80
2008,10,04,15,15,32.60
2008,10,04,15,16,40.60
2008,10,04,15,17,39.10
2008,10,04,15,18,38.30
2008,10,04,15,19,40.50
2008,10,04,15,20,41.70
2008,10,04,15,21,40.00
2008,10,04,15,22,46.90
2008,10,04,15,23,42.30
2008,10,04,15,24,41.00
2008,10,04,15,25,34.30
2008,10,04,15,26,35.30
2008,10,04,15,27,45.10
2008,10,04,15,28,35.20
2008,10,04,15,29,32.50
2008,10,04,15,30,29.20
2008,10,04,15,31,36.10
2008,10,04,15,32,40.10
2008,10,04,15,33,35.10
2008,10,04,15,34,39.60
2008,10,04,15,35,40.90
2008,10,04,15,36,45.00
2008,10,04,15,37,42.40
2008,10,04,15,38,33.40
2008,10,04,15,39,41.80
2008,10,04,15,40,43.50
2008,10,04,15,41,37.40
2008,10,04,15,42,40.50
2008,10,04,15,43,41.70
2008,10,04,15,44,42.10
2008,10,04,15,45,41.20
2008,10,04,15,46,40.40
2008,10,04,15,47,42.30
2008,10,04,15,48,50.60
2008,10,04,15,49,39.80
2008,10,04,15,50,50.60
2008,10,04,15,51,43.20
2008,10,04,15,52,58.00
2008,10,04,15,53,45.20
2008,10,04,15,54,53.20
2008,10,04,15,55,44.30
2008,10,04,15,56,44.80
2008,10,04,15,57,41.20
2008,10,04,15,58,36.60
2008,10,04,15,59,39.70
2008,10,04,16,00,36.40
2008,10,04,16,01,44.00
2008,10,04,16,02,39.30
2008,10,04,16,03,42.10
2008,10,04,16,04,38.60
2008,10,04,16,05,44.10
2008,10,04,16,06,30.50
2008,10,04,16,07,36.00
2008,10,04,16,08,47.50
2008,10,04,16,09,47.70
2008,10,04,16,10,33.70
2008,10,04,16,11,34.40
2008,10,04,16,12,48.20
2008,10,04,16,13,43.10
2008,10,04,16,14,49.00
2008,10,04,16,15,40.90
2008,10,04,16,16,50.80
2008,10,04,16,17,41.10
2008,10,04,16,18,43.00
2008,10,04,16,19,37.70
2008,10,04,16,20,33.00
2008,10,04,16,21,31.10
2008,10,04,16,22,46.40
2008,10,04,16,23,46.20
2008,10,04,16,24,41.50
2008,10,04,16,25,44.30
2008,10,04,16,26,39.60
2008,10,04,16,27,37.10
2008,10,04,16,28,40.90
2008,10,04,16,29,49.30
2008,10,04,16,30,42.70
2008,10,04,16,31,45.80
2008,10,04,16,32,45.30
2008,10,04,16,33,40.40
2008,10,04,16,34,38.60
2008,10,04,16,35,33.30
2008,10,04,16,36,28.30
2008,10,04,16,37,44.40
2008,10,04,16,38,37.70
2008,10,04,16,39,33.20
2008,10,04,16,40,29.50
2008,10,04,16,41,37.60
2008,10,04,16,42,27.00
2008,10,04,16,43,40.70
2008,10,04,16,44,25.80
2008,10,04,16,45,28.20
2008,10,04,16,46,28.30
2008,10,04,16,47,45.20
2008,10,04,16,48,40.80
2008,10,04,16,49,37.90
2008,10,04,16,50,34.50
2008,10,04,16,51,35.10
2008,10,04,16,52,35.20
2008,10,04,16,53,45.60
2008,10,04,16,54,39.00
2008,10,04,16,55,35.90
2008,10,04,16,56,31.90
2008,10,04,16,57,35.90
2008,10,04,16,58,35.40
2008,10,04,16,59,33.30
2008,10,04,17,00,38.70
2008,10,04,17,01,44.00
2008,10,04,17,02,42.80
2008,10,04,17,03,42.40
2008,10,04,17,04,47.60
2008,10,04,17,05,40.20
2008,10,04,17,06,40.70
2008,10,04,17,07,41.80
2008,10,04,17,08,46.50
2008,10,04,17,09,37.70
2008,10,04,17,10,43.90
2008,10,04,17,11,49.00
2008,10,04,17,12,40.60
2008,10,04,17,13,42.90
2008,10,04,17,14,32.30
2008,10,04,17,15,39.80
2008,10,04,17,16,49.90
2008,10,04,17,17,50.40
2008,10,04,17,18,42.60
2008,10,04,17,19,41.40
2008,10,04,17,20,57.80
2008,10,04,23,02,15.00
2008,10,04,23,03,17.90
2008,10,04,23,04,11.50
2008,10,04,23,05,13.50
2008,10,04,23,06,17.50
2008,10,04,23,07,11.40
2008,10,04,23,08,12.60
2008,10,04,23,09,12.60
2008,10,04,23,10,7.20
2008,10,04,23,11,11.70
2008,10,04,23,12,15.80
2008,10,04,23,13,15.70
2008,10,04,23,14,11.50
2008,10,04,23,15,10.50
2008,10,04,23,16,13.00
2008,10,04,23,17,11.10
2008,10,04,23,18,10.70
2008,10,04,23,19,9.40
2008,10,04,23,20,12.90
2008,10,04,23,21,12.00
2008,10,04,23,22,9.20
2008,10,04,23,23,14.20
2008,10,04,23,24,16.40
2008,10,04,23,25,15.40
2008,10,04,23,26,8.90
2008,10,04,23,27,15.00
2008,10,04,23,28,16.50
2008,10,04,23,29,11.10
2008,10,04,23,30,18.30
2008,10,04,23,31,16.80
2008,10,04,23,32,10.20